[keps] orb09190.2l.amsat

Ray Hoad r.hoad at att.net
Thu Jul 9 21:21:40 PDT 2009


SB KEPS @ AMSAT  $ORB09190.N
2Line Orbital Elements 09190.AMSAT

HR AMSAT ORBITAL ELEMENTS FOR AMATEUR SATELLITES IN NASA FORMAT
FROM WA5QGD FORT WORTH,TX July 9, 2009
Send Subscribe/unsubscribe to KEPS at 
http://www.amsat.org/mailman/listinfo/keps
BID: ORB09190.N

DECODE 2-LINE ELSETS WITH THE FOLLOWING KEY:
1 AAAAAU 00  0  0 BBBBB.BBBBBBBB  .CCCCCCCC  00000-0  00000-0 0  DDDZ
2 AAAAA EEE.EEEE FFF.FFFF GGGGGGG HHH.HHHH III.IIII JJ.JJJJJJJJKKKKKZ
KEY: A-CATALOGNUM B-EPOCHTIME C-DECAY D-ELSETNUM E-INCLINATION F-RAAN
G-ECCENTRICITY H-ARGPERIGEE I-MNANOM J-MNMOTION K-ORBITNUM Z-CHECKSUM

TO ALL RADIO AMATEURS BT

AO-07
1 07530U 74089B   09190.19511418 -.00000027  00000-0  10000-3 0  5240
2 07530 101.4249 214.0624 0011770 223.6401 136.3740 12.53575855585470
FO-29
1 24278U 96046B   09189.81804486  .00000049  00000-0  89186-4 0   804
2 24278 098.5519 060.9453 0349880 294.4035 062.0970 13.52944050636673
SO-33
1 25509U 98061B   09189.65393537  .00000324  00000-0  51597-4 0 04943
2 25509 031.4324 291.1091 0354269 166.2752 194.7795 14.28257456558904
RS-22
1 27939U 03042A   09189.80617102  .00000038  00000-0  16209-4 0 08364
2 27939 097.9430 063.8873 0014682 066.1015 294.1731 14.63327136308733
VO-52
1 28650U 05017B   09189.39079784 -.00000046  00000-0  73817-6 0 02680
2 28650 097.7422 250.2712 0026291 322.4915 037.4467 14.81598574225786
AO-16
1 20439U 90005D   09189.86720796 -.00000014  00000-0  10284-4 0 06480
2 20439 098.2798 157.2839 0011874 104.4726 255.7776 14.31827854016259
LO-19
1 20442U 90005G   09189.64115808 -.00000017  00000-0  88560-5 0 05656
2 20442 098.2422 164.2480 0012994 103.0034 257.2601 14.32063040016386
AO-27
1 22825U 93061C   09189.91748463 -.00000073  00000-0 -12082-4 0 02865
2 22825 098.4363 142.6580 0008264 193.5822 166.5146 14.29268469823014
IO-26
1 22826U 93061D   09189.69388125 -.00000025  00000-0  69337-5 0 00147
2 22826 098.4300 143.1801 0008538 191.2947 168.8044 14.29520695823086
GO-32
1 25397U 98043D   09189.93787524  .00000060  00000-0  44574-4 0 09389
2 25397 098.3259 211.1124 0001611 147.8537 212.2736 14.23161256571221
NO-44
1 26931U 01043C   09190.46249744 -.00000215  00000-0 -51451-4 0  2115
2 26931 067.0513 006.9565 0005865 275.3236 084.7193 14.29560311405764
SO-50
1 27607U 02058C   09189.86851562 -.00000131  00000-0  16308-5 0 09310
2 27607 064.5594 319.2392 0064764 200.5060 159.3457 14.71445462351861
CO-55
1 27844U 03031E   09189.54386392  .00000035  00000-0  36327-4 0 06180
2 27844 098.7127 198.4058 0011005 081.3811 278.8601 14.20645545312290
CO-57
1 27848U 03031J   09189.52437959  .00000023  00000-0  30995-4 0 05651
2 27848 098.7144 197.4485 0010762 086.4288 273.8116 14.20446825312251
AO-51
1 28375U 04025K   09189.56476909 -.00000004  00000-0  11085-4 0 04325
2 28375 098.0514 197.9207 0085225 060.1479 300.8146 14.40646367264036
CO-56
1 28941U 06005C   09190.49153535  .00069356  00000-0  20370-3 0  2402
2 28941 098.1377 009.1642 0077522 048.2193 312.6223 15.87571920190782
GENESAT1
1 29655U 06058C   09190.75951282  .00009603  00000-0  93800-4 0  7523
2 29655 040.0234 041.8335 0004148 301.2155 058.8277 15.66023853146018
CP3
1 31129U 07012N   09190.42833219  .00000115  00000-0  37464-4 0   522
2 31129 097.9891 242.4416 0101454 215.7618 143.6760 14.52146202118115
CO-65
1 32785U 08021C   09190.88616821  .00000238  00000-0  37107-4 0  4131
2 32785 097.9446 254.6654 0014513 322.1943 037.8249 14.81498190 64802
KKS-1
1 33493U 09002B   09190.46719678  .00000158  00000-0  27517-4 0  5514
2 33493 098.0584 302.7752 0020408 166.0576 194.1205 14.80695027 24762
SOHLA-1
1 33496U 09002E   09190.44917436 -.00000000  00000-0  81564-5 0  5146
2 33496 098.0392 299.4114 0005874 202.8476 157.2468 14.69439043 24542
NOAA-10
1 16969U 86073A   09190.44827055  .00000044  00000-0  35824-4 0  6787
2 16969 098.6897 216.9734 0012904 129.1191 231.1144 14.27390197186680
NOAA-11
1 19531U 88089A   09190.34149911 -.00000166  00000-0 -63047-4 0  6977
2 19531 098.7866 279.9535 0012168 048.6069 311.6137 14.14897775 72651
NOAA-12
1 21263U 91032A   09190.70739626  .00000046  00000-0  19420-4 0  1822
2 21263 098.7704 198.7779 0013515 081.8535 278.4653 14.25584686943644
MET-3/5
1 21655U 91056A   09189.95240727  .00000051  00000-0  10000-3 0 06282
2 21655 082.5527 191.1181 0014394 122.1030 238.1491 13.17019949860491
MET-2/21
1 22782U 93055A   09190.45187329 -.00000036  00000-0 -45927-4 0  5056
2 22782 082.5468 164.3477 0020819 285.8482 074.0381 13.83635864800687
OKEAN-4
1 23317U 94066A   09189.69512621 -.00000027  00000-0 -62986-5 0 09571
2 23317 082.5418 314.4137 0020679 296.5911 063.3174 14.82706204795555
NOAA-14
1 23455U 94089A   09190.25174822  .00000083  00000-0  67531-4 0  6825
2 23455 098.9094 267.8548 0010319 126.1433 234.0696 14.13765623749046
NOAA-15
1 25338U 98030A   09190.31481598 -.00000096  00000-0 -22810-4 0  9993
2 25338 098.5836 179.0368 0010533 000.2080 359.9104 14.24770768579927
RESURS
1 25394U 98043A   09189.72868653 -.00000014  00000-0  11793-4 0  2555
2 25394 098.3372 220.9779 0001904 118.7429 241.3941 14.24185348571466
FENGYUN1
1 25730U 99025A   09189.95775621  .00000314  00000-0  20982-3 0 08543
2 25730 098.7547 159.4679 0020856 150.5139 209.7212 14.07911638523389
OKEAN-0
1 25860U 99039A   09189.49314704  .00000019  00000-0  10255-4 0 07265
2 25860 097.7867 169.8268 0001802 085.1748 274.9657 14.73579500536286
NOAA-16
1 26536U 00055A   09190.32184123 -.00000129  00000-0 -44310-4 0  4765
2 26536 099.1750 194.5230 0010005 214.8247 145.2269 14.12524837453427
NOAA-17
1 27453U 02032A   09190.27335160  .00000179  00000-0  95889-4 0  4786
2 27453 098.4824 248.5815 0012599 062.9225 297.3283 14.24075734365895
NOAA-18
1 28654U 05018A   09190.23806407  .00000187  00000-0  12780-3 0  9692
2 28654 098.9071 133.3075 0013482 303.6542 056.3351 14.11270431213063
NOAA-19
1 33591U 09005A   09190.22285177 -.00000159  00000-0 -64400-4 0  1715
2 33591 098.7457 135.4117 0014014 176.7279 183.3998 14.10968609 21541
HUBBLE
1 20580U 90037B   09187.79703538  .00000333  00000-0  12759-4 0 04173
2 20580 028.4707 334.3116 0003564 130.6996 229.3951 15.00813792852808
ISS
1 25544U 98067A   09190.47815954  .00007291  00000-0  53786-4 0  1862
2 25544 051.6377 192.4343 0007541 202.7089 294.2643 15.74256637609463
CO-58
1 28895U 05043F   09189.24414665 -.00000048  00000-0 -39392-6 0  3421
2 28895 098.0565 079.2698 0016844 283.5757 076.3568 14.59779218196800
FALCON
1 30776U 07006E   09190.74676714  .00000179  00000-0  15966-4 0  6093
2 30776 035.4349 322.5359 0000431 038.5985 321.4761 15.03266693128497
MAST
1 31126U 07012K   09188.68652982 -.00000052  00000-0 -10405-5 0  6345
2 31126 097.9875 242.5524 0093865 215.8053 143.6825 14.53504423118010
CAPE1
1 31130U 07012P   09190.81285434 -.00000023  00000-0  56098-5 0  6448
2 31130 097.9894 242.7145 0101896 214.7488 144.6947 14.52070637117975
COMPASS
1 32787U 08021E   09189.30780441  .00000088  00000-0  17940-4 0 04134
2 32787 097.9421 252.9531 0014999 327.7561 032.2729 14.81623155064574
AAUSAT2
1 32788U 08021F   09190.75956404  .00000136  00000-0  24009-4 0  4037
2 32788 097.9409 254.4548 0015052 324.5717 035.4461 14.81746920 64793
DO-64
1 32789U 08021G   09189.76844975  .00000317  00000-0  47018-4 0 04188
2 32789 097.9451 253.6469 0015124 325.8266 034.1968 14.81738980064646
CO-66
1 32791U 08021J   09189.42062056  .00000344  00000-0  50714-4 0 03979
2 32791 097.9435 253.0983 0015837 326.1756 033.8450 14.81451673064558
RS-30
1 32953U 08025A   09189.68054717  .00000010  00000-0  00000 0 0  3491
2 32953 082.5003 243.2466 0020363 129.5336 230.7549 12.43002104 51061
TACSAT-3
1 35001U 09028A   09190.85970969  .00001329  00000-0  39403-4 0   450
2 35001 040.4555 105.0666 0025860 328.1992 031.7275 15.38900739  7842
PHARMSAT
1 35002U 09028B   09190.89901637  .00001140  00000-0  33817-4 0   455
2 35002 040.4691 104.5199 0028727 334.3141 025.6287 15.39668821  7848
HAWKSAT1
1 35003U 09028C   09190.89039901  .00000866  00000-0  26924-4 0   468
2 35003 040.4695 104.4631 0029521 334.1920 025.7422 15.39915105  7852
CP6
1 35004U 09028D   09189.91212614  .00002455  00000-0  64757-4 0   398
2 35004 040.4605 110.1985 0029359 328.6995 031.2082 15.40164192  7699
AEROCUB3
1 35005U 09028E   09189.91815909  .00002567  00000-0  67835-4 0 00502
2 35005 040.4747 110.3100 0029207 327.3322 032.5681 15.39990238007695
/EX






More information about the Keps mailing list